�������l�o���
Date,Time,MP-1(��Sv/h),MP-2(��Sv/h),MP-3(��Sv/h),MP-4(��Sv/h),MP-5(��Sv/h),MP-6(��Sv/h),MP-7(��Sv/h),����,����(m/s),���J
2019/04/06,00:00,0.208,0.191,0.317,0.298,0.278,0.159,0.095,���k��,15.7,��
2019/04/06,00:10,0.209,0.191,0.317,0.295,0.279,0.158,0.096,��,18.2,��
2019/04/06,00:20,0.209,0.191,0.318,0.296,0.281,0.158,0.095,��,17.3,��
2019/04/06,00:30,0.208,0.192,0.317,0.296,0.280,0.159,0.095,���k��,15.5,��
2019/04/06,00:40,0.209,0.190,0.319,0.297,0.280,0.159,0.094,��,15.0,��
2019/04/06,00:50,0.209,0.192,0.316,0.295,0.279,0.158,0.094,��,11.5,��
2019/04/06,01:00,0.209,0.192,0.318,0.297,0.279,0.157,0.094,��,14.8,��
2019/04/06,01:10,0.208,0.191,0.319,0.297,0.280,0.158,0.095,���k��,11.8,��
2019/04/06,01:20,0.209,0.193,0.317,0.296,0.279,0.158,0.094,���k��,13.3,��
2019/04/06,01:30,0.210,0.193,0.318,0.295,0.280,0.159,0.095,���k��,14.6,��
2019/04/06,01:40,0.208,0.192,0.320,0.295,0.282,0.157,0.095,���k��,14.3,��
2019/04/06,01:50,0.209,0.192,0.317,0.297,0.281,0.158,0.095,���k��,11.5,��
2019/04/06,02:00,0.209,0.193,0.318,0.296,0.279,0.159,0.095,��,13.4,��
2019/04/06,02:10,0.208,0.192,0.317,0.297,0.279,0.157,0.095,��,13.7,��
2019/04/06,02:20,0.209,0.192,0.317,0.296,0.281,0.158,0.095,���k��,12.5,��
2019/04/06,02:30,0.209,0.192,0.319,0.297,0.277,0.157,0.095,���k��,9.0,��
2019/04/06,02:40,0.209,0.192,0.318,0.297,0.278,0.158,0.095,���k��,10.0,��
2019/04/06,02:50,0.209,0.193,0.317,0.297,0.282,0.158,0.094,���k��,7.9,��
2019/04/06,03:00,0.210,0.193,0.317,0.296,0.280,0.159,0.095,���k��,7.7,��
2019/04/06,03:10,0.210,0.193,0.317,0.296,0.280,0.158,0.096,���k��,6.3,��
2019/04/06,03:20,0.209,0.192,0.317,0.297,0.279,0.158,0.094,���k��,7.5,��
2019/04/06,03:30,0.209,0.192,0.317,0.296,0.279,0.158,0.096,���k��,9.5,��
2019/04/06,03:40,0.210,0.192,0.317,0.295,0.279,0.158,0.096,�k��,7.6,��
2019/04/06,03:50,0.209,0.192,0.316,0.298,0.280,0.158,0.095,�k��,6.5,��
2019/04/06,04:00,0.209,0.191,0.319,0.296,0.279,0.158,0.095,���k��,8.3,��
2019/04/06,04:10,0.208,0.192,0.317,0.296,0.279,0.158,0.095,���k��,11.1,��
2019/04/06,04:20,0.209,0.192,0.317,0.297,0.279,0.158,0.096,���k��,10.1,��
2019/04/06,04:30,0.208,0.193,0.318,0.296,0.280,0.159,0.096,��,10.9,��
2019/04/06,04:40,0.209,0.192,0.317,0.296,0.280,0.158,0.095,���k��,7.6,��
2019/04/06,04:50,0.209,0.192,0.317,0.295,0.280,0.158,0.094,���k��,7.0,��
2019/04/06,05:00,0.208,0.193,0.318,0.297,0.279,0.158,0.096,���k��,6.6,��
2019/04/06,05:10,0.208,0.193,0.318,0.296,0.279,0.158,0.095,���k��,6.3,��
2019/04/06,05:20,0.209,0.192,0.318,0.295,0.278,0.158,0.095,��,6.4,��
2019/04/06,05:30,0.208,0.192,0.318,0.296,0.279,0.158,0.096,��,7.0,��
2019/04/06,05:40,0.208,0.192,0.319,0.296,0.279,0.158,0.096,��,7.3,��
2019/04/06,05:50,0.209,0.191,0.317,0.295,0.278,0.158,0.095,��,9.0,��
2019/04/06,06:00,0.209,0.192,0.316,0.296,0.279,0.157,0.096,���k��,8.8,��
2019/04/06,06:10,0.208,0.193,0.317,0.296,0.279,0.158,0.096,��,11.5,��
2019/04/06,06:20,0.210,0.191,0.318,0.295,0.279,0.158,0.095,��,9.5,��
2019/04/06,06:30,0.209,0.192,0.315,0.296,0.279,0.156,0.095,��,10.7,��
2019/04/06,06:40,0.209,0.192,0.317,0.298,0.277,0.157,0.095,���k��,10.7,��
2019/04/06,06:50,0.209,0.193,0.318,0.296,0.279,0.158,0.095,���k��,11.8,��
2019/04/06,07:00,0.208,0.191,0.316,0.295,0.279,0.158,0.095,���k��,11.5,��
2019/04/06,07:10,0.208,0.192,0.318,0.297,0.279,0.159,0.095,���k��,12.1,��
2019/04/06,07:20,0.209,0.193,0.317,0.295,0.278,0.158,0.095,���k��,9.8,��
2019/04/06,07:30,0.210,0.192,0.317,0.295,0.279,0.157,0.095,��,9.6,��
2019/04/06,07:40,0.209,0.192,0.318,0.296,0.278,0.158,0.095,��,9.2,��
2019/04/06,07:50,0.209,0.192,0.318,0.296,0.280,0.158,0.095,��,7.1,��
2019/04/06,08:00,0.210,0.191,0.317,0.296,0.279,0.159,0.096,���k��,9.2,��
2019/04/06,08:10,0.208,0.193,0.318,0.294,0.280,0.158,0.094,��,10.1,��
2019/04/06,08:20,0.208,0.191,0.318,0.295,0.280,0.158,0.095,��,9.3,��
2019/04/06,08:30,0.209,0.192,0.317,0.293,0.277,0.158,0.094,���k��,10.9,��
2019/04/06,08:40,0.209,0.191,0.317,0.296,0.279,0.158,0.095,��,10.0,��
2019/04/06,08:50,0.208,0.192,0.318,0.295,0.278,0.158,0.095,��,12.1,��
2019/04/06,09:00,0.207,0.192,0.316,0.293,0.279,0.157,0.095,���k��,10.1,��
2019/04/06,09:10,0.208,0.191,0.319,0.296,0.279,0.157,0.095,���k��,14.4,��
2019/04/06,09:20,0.207,0.192,0.317,0.294,0.280,0.157,0.094,���k��,14.8,��
2019/04/06,09:30,0.208,0.192,0.317,0.296,0.278,0.157,0.095,���k��,9.8,��
2019/04/06,09:40,0.207,0.192,0.319,0.295,0.280,0.158,0.096,��,12.5,��
2019/04/06,09:50,0.209,0.191,0.318,0.294,0.279,0.158,0.095,��,11.8,��
2019/04/06,10:00,0.209,0.193,0.318,0.297,0.280,0.157,0.095,��,10.4,��
2019/04/06,10:10,0.208,0.191,0.320,0.296,0.278,0.158,0.095,���k��,14.3,��
2019/04/06,10:20,0.208,0.193,0.317,0.294,0.279,0.157,0.096,��,14.0,��
2019/04/06,10:30,0.209,0.191,0.318,0.295,0.276,0.158,0.096,���k��,14.7,��
2019/04/06,10:40,0.208,0.191,0.318,0.295,0.278,0.158,0.095,��,11.4,��
2019/04/06,10:50,0.206,0.190,0.318,0.296,0.278,0.158,0.095,���k��,13.1,��
2019/04/06,11:00,0.209,0.193,0.317,0.296,0.279,0.159,0.096,���k��,16.8,��
2019/04/06,11:10,0.207,0.191,0.319,0.293,0.277,0.158,0.094,��,14.6,��
2019/04/06,11:20,0.210,0.193,0.316,0.296,0.281,0.158,0.096,��,11.5,��
2019/04/06,11:30,0.208,0.191,0.318,0.295,0.278,0.157,0.096,���k��,11.5,��
2019/04/06,11:40,0.208,0.192,0.316,0.294,0.279,0.157,0.094,���k��,15.4,��
2019/04/06,11:50,0.208,0.190,0.320,0.295,0.278,0.159,0.095,���k��,14.0,��
2019/04/06,12:00,0.209,0.191,0.316,0.296,0.279,0.157,0.095,���k��,12.1,��
2019/04/06,12:10,0.208,0.191,0.319,0.295,0.277,0.158,0.095,��,14.9,��
2019/04/06,12:20,0.207,0.193,0.317,0.297,0.277,0.158,0.096,���k��,14.0,��
2019/04/06,12:30,0.209,0.191,0.319,0.297,0.281,0.157,0.096,���k��,13.9,��
2019/04/06,12:40,0.208,0.192,0.318,0.293,0.278,0.158,0.096,��,11.5,��
2019/04/06,12:50,0.210,0.192,0.317,0.297,0.279,0.158,0.095,���k��,9.6,��
2019/04/06,13:00,0.207,0.191,0.320,0.297,0.279,0.157,0.095,��,10.1,��
2019/04/06,13:10,0.210,0.193,0.316,0.294,0.278,0.158,0.095,��,13.4,��
2019/04/06,13:20,0.210,0.192,0.319,0.294,0.279,0.156,0.094,��,7.8,��
2019/04/06,13:30,0.208,0.194,0.317,0.297,0.280,0.158,0.097,��,9.8,��
2019/04/06,13:40,0.210,0.191,0.315,0.296,0.277,0.158,0.095,��,14.8,��
2019/04/06,13:50,0.208,0.192,0.319,0.293,0.278,0.157,0.095,��,12.0,��
2019/04/06,14:00,0.208,0.192,0.318,0.298,0.279,0.158,0.096,���k��,13.7,��
2019/04/06,14:10,0.210,0.192,0.316,0.297,0.276,0.158,0.094,���k��,10.4,��
2019/04/06,14:20,0.208,0.193,0.319,0.293,0.278,0.157,0.095,��,12.3,��
2019/04/06,14:30,0.210,0.191,0.317,0.293,0.279,0.158,0.096,�k��,10.0,��
2019/04/06,14:40,0.210,0.192,0.316,0.298,0.277,0.158,0.095,���k��,10.9,��
2019/04/06,14:50,0.208,0.192,0.319,0.295,0.280,0.157,0.096,���k��,8.6,��
2019/04/06,15:00,0.210,0.193,0.316,0.294,0.281,0.157,0.095,���k��,10.7,��
2019/04/06,15:10,0.208,0.192,0.319,0.297,0.277,0.159,0.095,���k��,8.6,��
2019/04/06,15:20,0.211,0.194,0.316,0.294,0.280,0.158,0.096,���k��,6.7,��
2019/04/06,15:30,0.209,0.192,0.320,0.297,0.280,0.157,0.095,��,11.7,��
2019/04/06,15:40,0.210,0.193,0.318,0.298,0.276,0.159,0.095,���k��,8.1,��
2019/04/06,15:50,0.210,0.193,0.321,0.298,0.279,0.157,0.095,���k��,7.5,��
2019/04/06,16:00,0.209,0.193,0.319,0.299,0.280,0.158,0.095,���k��,7.8,��
2019/04/06,16:10,0.209,0.193,0.320,0.297,0.277,0.158,0.096,���k��,7.9,��
2019/04/06,16:20,0.209,0.192,0.318,0.297,0.279,0.158,0.095,���k��,7.7,��
2019/04/06,16:30,0.210,0.193,0.318,0.297,0.281,0.158,0.096,���k��,6.4,��
2019/04/06,16:40,0.210,0.192,0.319,0.299,0.276,0.158,0.095,���k��,7.8,��
2019/04/06,16:50,0.209,0.193,0.317,0.298,0.281,0.157,0.095,�k��,6.6,��
2019/04/06,17:00,0.210,0.192,0.319,0.298,0.279,0.157,0.095,�k��,4.6,��
2019/04/06,17:10,0.209,0.193,0.318,0.297,0.281,0.159,0.095,�k��,3.1,��
2019/04/06,17:20,0.211,0.194,0.320,0.297,0.279,0.157,0.096,��,3.8,��
2019/04/06,17:30,0.209,0.193,0.318,0.299,0.280,0.159,0.096,��,2.9,��
2019/04/06,17:40,0.209,0.194,0.318,0.296,0.280,0.158,0.096,��,2.1,��
2019/04/06,17:50,0.210,0.193,0.320,0.297,0.281,0.157,0.095,���k��,0.6,��
2019/04/06,18:00,0.209,0.192,0.318,0.298,0.280,0.158,0.095,���k��,1.1,��
2019/04/06,18:10,0.210,0.193,0.320,0.297,0.279,0.158,0.095,���쐼,2.0,��
2019/04/06,18:20,0.209,0.192,0.319,0.298,0.281,0.157,0.095,���k��,0.6,��
2019/04/06,18:30,0.209,0.193,0.319,0.297,0.280,0.159,0.095,-,CALM,��
2019/04/06,18:40,0.210,0.193,0.320,0.297,0.281,0.159,0.095,��쓌,0.9,��
2019/04/06,18:50,0.209,0.192,0.318,0.298,0.278,0.159,0.095,-,CALM,��
2019/04/06,19:00,0.209,0.192,0.318,0.296,0.279,0.159,0.095,�k��,2.0,��
2019/04/06,19:10,0.209,0.193,0.319,0.296,0.280,0.158,0.095,���k��,2.1,��
2019/04/06,19:20,0.209,0.194,0.319,0.298,0.279,0.160,0.095,���쓌,1.1,��
2019/04/06,19:30,0.210,0.192,0.319,0.298,0.280,0.159,0.095,-,CALM,��
2019/04/06,19:40,0.210,0.194,0.318,0.298,0.280,0.159,0.095,-,CALM,��
2019/04/06,19:50,0.209,0.193,0.318,0.298,0.278,0.159,0.096,�쐼,0.7,��
2019/04/06,20:00,0.211,0.194,0.318,0.298,0.280,0.159,0.096,��쓌,1.5,��
2019/04/06,20:10,0.209,0.194,0.319,0.299,0.279,0.158,0.096,��,1.8,��
2019/04/06,20:20,0.209,0.193,0.318,0.297,0.278,0.158,0.096,���k��,1.0,��
2019/04/06,20:30,0.210,0.192,0.319,0.298,0.278,0.158,0.095,�쓌,1.6,��
2019/04/06,20:40,0.209,0.193,0.319,0.297,0.279,0.157,0.095,��,1.6,��
2019/04/06,20:50,0.209,0.193,0.319,0.297,0.277,0.158,0.096,��쓌,1.2,��
2019/04/06,21:00,0.209,0.193,0.319,0.296,0.279,0.159,0.096,��,2.8,��
2019/04/06,21:10,0.209,0.193,0.319,0.297,0.277,0.159,0.095,��,3.3,��
2019/04/06,21:20,0.210,0.193,0.318,0.298,0.278,0.158,0.096,��쐼,3.6,��
2019/04/06,21:30,0.209,0.192,0.319,0.297,0.279,0.159,0.095,��쓌,3.4,��
2019/04/06,21:40,0.209,0.194,0.320,0.297,0.279,0.159,0.096,��,3.9,��
2019/04/06,21:50,0.209,0.193,0.319,0.299,0.279,0.158,0.096,��,2.7,��
2019/04/06,22:00,0.210,0.193,0.318,0.297,0.279,0.159,0.095,��,3.0,��
2019/04/06,22:10,0.209,0.194,0.319,0.298,0.278,0.158,0.095,��쓌,3.5,��
2019/04/06,22:20,0.210,0.192,0.318,0.298,0.279,0.158,0.096,��,2.8,��
2019/04/06,22:30,0.210,0.192,0.318,0.298,0.280,0.158,0.096,��쓌,2.2,��
2019/04/06,22:40,0.209,0.192,0.319,0.296,0.278,0.159,0.096,��쓌,1.8,��
2019/04/06,22:50,0.209,0.193,0.320,0.297,0.278,0.159,0.096,�쐼,1.2,��
2019/04/06,23:00,0.210,0.193,0.318,0.297,0.279,0.158,0.096,-,CALM,��
2019/04/06,23:10,0.209,0.192,0.318,0.297,0.277,0.158,0.095,�k,2.2,��
2019/04/06,23:20,0.209,0.193,0.320,0.298,0.279,0.159,0.095,�k�k��,4.1,��
2019/04/06,23:30,0.211,0.192,0.320,0.297,0.278,0.159,0.096,�k�k��,6.0,��
2019/04/06,23:40,0.209,0.191,0.318,0.297,0.279,0.159,0.095,�k��,6.6,��
2019/04/06,23:50,0.208,0.192,0.319,0.298,0.278,0.159,0.095,�k��,7.0,��
